カタログに戻る

COSMOS 2251 DEB

運用中LEO
NORAD 35611·DEBRIS·🇷🇺 Russia

打ち上げ Jun 16, 1993 から Plesetsk Cosmodrome

Loading…

次のパス (今後24時間)

TLE

最新Source: Space-Track

元期: Sep 14, 2026, 06:23 UTC

1 35611U 93036ANE 26257.26665459  .00007722  00000-0  10308-2 0  9994
2 35611  74.0206 358.8168 0020692   3.9405 356.1930 14.79569637913575

AllMySatでCOSMOS 2251 DEBをリアルタイム追跡

Download on the App Store